Home > Weather > Pali > Past weeks

Flag for India Past Weather in Pali, Rajasthan, India — Yesterday and Last 2 Weeks

Now
102 °F

Haze.


Feels Like: 103 °F
Forecast: 85 / 107 °F
Wind: 14 mph from West

Location: Jaipur / Sanganer

Current Time: May 31, 2016 at 1:19:35 PM

Latest Report: May 31, 2016 at 12:30 PM


Visibility: 2 mi

Pressure: 29.71 "Hg

Humidity: 26%

Dew Point: 61 °F

Location of PaliLocation

Past Weather in Pali — Graph

°F

Pali Temperature Yesterday

Maximum temperature yesterday: 99 °F (at 5:00 PM)
Minimum temperature yesterday: 82 °F (at 3:00 AM)
Average temperature yesterday: 90 °F

High & Low Weather Summary for the Past Weeks

 TemperatureHumidityPressure
High115 °F (May 19, 2:30 PM)74% (May 24, 1:00 AM)29.74 "Hg (May 24, 1:00 AM)
Low77 °F (May 23, 11:00 PM)5% (May 19, 4:30 PM)29.42 "Hg (May 20, 3:30 PM)
Average97 °F30%29.59 "Hg
* Reported May 16 11:30 AM — May 31 12:00 PM, Pali, Weather by CustomWeather, © 2016

Note: Actual official high and low records may vary slightly from our data, if they occured in-between our weather recording intervals... More about our weather records

Advertising

Pali Weather History for the Previous 24 Hours

Scroll right to see more
 ConditionsComfort  
Time TempWeatherWind HumidityBarometerVisibility
12:00 PM
Tue, May 31
100 °FHaze.14 mph29%29.71 "Hg2 mi
11:30 AM99 °FHaze.13 mph33%29.71 "Hg2 mi
11:00 AM97 °FHaze.14 mph34%29.74 "Hg2 mi
10:30 AM95 °FHaze.16 mph36%29.74 "Hg2 mi
10:00 AM95 °FHaze.17 mph36%29.74 "Hg2 mi
9:00 AM91 °FHaze.14 mph41%29.74 "Hg1 mi
8:30 AM90 °FHaze.9 mph43%29.74 "Hg1 mi
8:00 AM90 °FHaze.9 mph43%29.74 "Hg1 mi
7:30 AM88 °FHaze.7 mph43%29.74 "Hg1 mi
7:00 AM86 °FHaze.1 mph49%29.71 "Hg1 mi
6:30 AM86 °FHaze.1 mph49%29.71 "Hg1 mi
6:00 AM84 °FHaze.No wind51%29.71 "Hg1 mi
5:30 AM84 °FHaze.3 mph51%29.68 "Hg1 mi
5:00 AM84 °FHaze.No wind51%29.68 "Hg1 mi
4:00 AM84 °FHaze.6 mph51%29.68 "Hg1 mi
3:00 AM84 °FHaze.7 mph51%29.65 "Hg1 mi
2:00 AM84 °FHaze.7 mph51%29.68 "Hg1 mi
1:00 AM86 °FHaze.9 mph52%29.68 "Hg1 mi
12:00 AM86 °FHaze.12 mph52%29.68 "Hg1 mi
11:30 PM
Mon, May 30
86 °FHaze.12 mph52%29.68 "Hg1 mi
11:00 PM88 °FHaze.12 mph49%29.68 "Hg2 mi
10:00 PM90 °FPassing clouds.14 mph43%29.65 "Hg2 mi
9:30 PM91 °FPassing clouds.13 mph36%29.65 "Hg2 mi
9:00 PM91 °FPassing clouds.13 mph36%29.65 "Hg2 mi
8:30 PM93 °FPassing clouds.15 mph36%29.65 "Hg2 mi
8:00 PM95 °FPassing clouds.14 mph32%29.65 "Hg2 mi
7:30 PM97 °FScattered clouds.15 mph30%29.62 "Hg2 mi
6:30 PM97 °FScattered clouds.9 mph30%29.62 "Hg2 mi
6:00 PM99 °FScattered clouds.5 mph29%29.62 "Hg2 mi
5:30 PM99 °FScattered clouds.5 mph29%29.62 "Hg2 mi
5:00 PM99 °FScattered clouds.1 mph31%29.62 "Hg2 mi
4:30 PM97 °FScattered clouds.6 mph30%29.62 "Hg2 mi
4:00 PM97 °FScattered clouds.7 mph32%29.62 "Hg2 mi
3:30 PM97 °FScattered clouds.7 mph32%29.62 "Hg2 mi
2:30 PM93 °FScattered clouds.12 mph36%29.65 "Hg1 mi
1:00 PM91 °FScattered clouds.16 mph38%29.71 "Hg1 mi
Weather by CustomWeather, © 2016

See weather overviewHow to use our weather pages